カタログに戻る

HULIANWANG DIGUI-96

運用中通信LEO
NORAD 66412·PAYLOAD·🇨🇳 China

打ち上げ Nov 10, 2025 から Wenchang Space Launch Site

Loading…

次のパス (今後24時間)

TLE

最新Source: Space-Track

元期: Sep 14, 2026, 14:15 UTC

1 66412U 25258A   26257.59376161 -.00000093  00000-0  67113-4 0  9996
2 66412  50.0063 334.9796 0000109 118.7540 241.3343 13.29330238 41629

AllMySatでHULIANWANG DIGUI-96をリアルタイム追跡

Download on the App Store